STARLINK-36156 (67006 NORAD) Tracking and Keplerian Element Data

This shows tracking and keplerian element data for the satellite.

Feedback or suggestion? Click here.




ElementValue
Catalog67006
NameSTARLINK-36156
Epoch Orbit138
Epoch Day354.25003472
Epoch Year2025
RAAN301.9795
Inclination69.9943
Eccentricity0.0003875
Argument of Perigee271.8264
Mean Anonmoly302.4161
Mean Motion15.92116281
Decay Rate-0.01083837
L11 67006U 25293D 25354.25003472 -.01083837 35109-3 -32475-2 0 9998
L22 67006 69.9943 301.9795 0003875 271.8264 302.4161 15.92116281 1383



Live tracking and technical data element details for STARLINK-36156 (NORAD 67006). STARLINK-36156 can be tracked NOW for your location showing map with azimuth and elevation plus other details from your city location.







IsCatalogInMostPopularTable: catalog: 67006, numindb: 14
Update: records affected: 1



GetName: 67006 STARLINK-36156

Hit Count: updated at: Fri, 16 Jan 2026 09:09:16 GMT